www.pogodaiklimat.ru

Погода и климат >> Архив погоды >> Канарские Острова >> Пальма


ПОГОДА на Пальме

  • Прогноз погоды на Пальме
  • Монитор погоды на Пальме

АРХИВ ПОГОДЫ на Пальме

Время (UTC), дата Ветер
(напр.,м/с)
 
Видим.   Явления Облачность Т
(С)
Тd
(С)
f
(%)
Тe
(С)
Тes
(С)
Комфортность P
(гПа)
Po
(гПа)
Тmin
(С)
Tmax
(С)
R
(мм)
R24
(мм)
S
(см)
19 10.06 С 8 20 км 6/6 600 м
[Cu Sc]
+20.8 1020.2 1016.5
20 10.06 С 9 20 км 5/5 600 м
[Cu Sc]
+20.4 1020.3 1016.6
21 10.06 С 9 н/о н/о +20.3 1020.8 1017.1
22 10.06 С 9 н/о н/о +20.1 1021.0 1017.3
23 10.06 С 9 н/о н/о +19.9 1021.1 1017.4
00 11.06 С 9 н/о н/о +19.4 1020.8 1017.1
01 11.06 С 9 н/о н/о +19.7 1020.3 1016.6
02 11.06 СЗ 4 н/о н/о +19.2 1019.6 1015.9
03 11.06 С 10 н/о н/о +19.7 1019.0 1015.3
04 11.06 С 5 н/о н/о +19.9 1018.7 1015.0
05 11.06 СЗ 6 н/о н/о +19.8 1018.5 1014.8
06 11.06 С 7 20 км [макс. диам. градин 0 мм] 9/9 600 м
[Cu Sc]
+20.2 1018.5 1014.8 +19.1
07 11.06 С 7 20 км 9/9 600 м
[Cu Sc]
+20.5 1018.6 1014.9
08 11.06 С 6 20 км 10/10 600 м
[Cu Sc]
+20.8 1018.5 1014.8
09 11.06 СВ 9 20 км [макс. диам. градин 0 мм] 9/9 600 м
[Cu Sc]
+21.2 1018.4 1014.7
10 11.06 С 8 20 км 6/6 600 м
[Cu Sc]
+22.6 1018.3 1014.6
11 11.06 СВ 12 20 км 5/5 600 м
[Cu Sc]
+23.0 1018.1 1014.4
12 11.06 СВ 14 20 км [макс. диам. градин 0 мм] 5/5 600 м
[Cu Sc]
+22.3 1017.9 1014.2
13 11.06 С 10 20 км 6/6 600 м
[Cu Sc]
+23.3 1018.2 1014.5
14 11.06 С 12 25 км 4/4 600 м
[Cu Sc]
+22.9 1017.6 1013.9
15 11.06 С 13 25 км [макс. диам. градин 0 мм] 3/3 600 м
[Cu Sc]
+22.7 1016.9 1013.2
16 11.06 С 13 н/о н/о +22.6 1016.5 1012.8
17 11.06 С 12 н/о н/о +22.1 1016.4 1012.7
18 11.06 С 12 20 км [макс. диам. градин 0 мм] 4/4 600 м
[Cu Sc]
+21.4 1016.2 1012.5 +23.6
19 11.06 С 12 н/о н/о +19.9 1016.5 1012.8
20 11.06 С 10 н/о н/о +20.7 1016.5 1012.8
21 11.06 С 9 25 км [макс. диам. градин 0 мм] 6/6 600 м
[Cu Sc]
+20.4 1016.6 1012.9
22 11.06 С 10 н/о н/о +21.0 1016.7 1013.0
23 11.06 С 10 н/о н/о +20.4 1017.0 1013.3
00 12.06 С 9 н/о н/о +20.0 1016.7 1013.0
01 12.06 С 8 н/о н/о +20.0 1016.4 1012.7
02 12.06 С 7 н/о н/о +20.3 1015.6 1011.9
03 12.06 С 7 н/о н/о +20.6 1015.0 1011.3
04 12.06 С 7 н/о н/о +19.3 1014.8 1011.1
05 12.06 С 9 н/о н/о +19.7 1014.8 1011.1
06 12.06 С 10 20 км 10/10 300 м
[Cu Sc]
+19.2 1014.9 1011.2 +18.9
07 12.06 С 8 н/о н/о +19.7 1015.0 1011.3
08 12.06 С 8 н/о н/о +19.1 1015.9 1012.2
09 12.06 С 7 35 км [макс. диам. градин 0 мм] 9/9 600 м
[Cu Sc Cs]
+20.9 1015.8 1012.1
10 12.06 С 7 н/о н/о +20.5 1016.0 1012.3
11 12.06 С 6 н/о н/о +21.8 1016.3 1012.6
12 12.06 С 7 25 км [макс. диам. градин 0 мм] 9/9 600 м
[Cu Sc]
+21.8 1016.2 1012.5 0.0
13 12.06 С 7 н/о н/о +21.8 1016.2 1012.5
14 12.06 С 6 20 км 9/9 600 м
[Cu Sc]
+22.2 1015.8 1012.1
15 12.06 СВ 7 20 км [макс. диам. градин 0 мм] 9/9 600 м
[Cu Sc]
+21.9 1015.3 1011.6
16 12.06 С 7 20 км 9/9 600 м
[Cu Sc]
+21.9 1015.3 1011.6
17 12.06 СВ 8 20 км 9/9 600 м
[Cu Sc]
+21.5 1014.6 1010.9
18 12.06 СВ 9 20 км [макс. диам. градин 0 мм] 9/9 600 м
[Cu Sc]
+20.6 1014.2 1010.5 +22.5 0.0
19 12.06 СВ 9 20 км 9/9 600 м
[Cu Sc]
+20.2 1014.5 1010.8
20 12.06 СВ 9 н/о н/о +20.2 1015.2 1011.5
21 12.06 С 8 н/о н/о +20.2 1015.8 1012.1
22 12.06 С 8 н/о н/о +20.2 1016.2 1012.5
23 12.06 С 8 н/о н/о +20.1 1016.7 1013.0
00 13.06 С 8 н/о н/о +20.0 1016.3 1012.6
01 13.06 С 7 н/о н/о +19.8 1015.9 1012.2
02 13.06 С 6 н/о н/о +19.9 1015.5 1011.8
03 13.06 С 6 н/о н/о +19.7 1015.1 1011.4
04 13.06 СВ 8 н/о н/о +19.2 1015.1 1011.4
05 13.06 С 7 н/о н/о +19.6 1015.1 1011.4
06 13.06 С 5 н/о 10/10
[Cu Sc]
+19.6 1015.4 1011.7 +19.1 0.0
07 13.06 СЗ 3 н/о н/о +19.7 1015.5 1011.8
08 13.06 С 3 н/о н/о +20.6 1015.8 1012.1
09 13.06 С 3 35 км [макс. диам. градин 0 мм] 9/9 600 м
[Cu Sc]
+20.9 1016.6 1012.9
10 13.06 С 5 н/о н/о +20.9 1017.0 1013.3
11 13.06 С 4 н/о н/о +21.5 1017.5 1013.8
12 13.06 С 4 35 км [макс. диам. градин 0 мм] 9/9 1000 м
[Cu Sc]
+21.3 1017.5 1013.8
13 13.06 С 4 н/о н/о +21.8 1017.4 1013.7
14 13.06 С 4 н/о н/о +21.4 1017.2 1013.5
15 13.06 СВ 5 20 км [макс. диам. градин 0 мм] 8/8 1000 м
[Cu Sc]
+21.1 1017.0 1013.3
16 13.06 СВ 5 н/о н/о +21.0 1016.8 1013.1
17 13.06 СВ 4 н/о н/о +20.8 1016.9 1013.2
18 13.06 СВ 5 20 км [макс. диам. градин 0 мм] 8/8 600 м
[Cu Sc]
+20.8 1016.8 1013.1 +22.0
19 13.06 СВ 6 н/о н/о +20.5 1016.9 1013.2
20 13.06 С 5 н/о н/о +20.2 1017.7 1014.0
21 13.06 С 5 н/о н/о +20.1 1018.1 1014.4
22 13.06 С 4 н/о н/о +20.0 1018.6 1014.9
23 13.06 СЗ 2 н/о н/о +19.5 1018.7 1015.0
00 14.06 СЗ 2 н/о н/о +19.3 1018.6 1014.9
01 14.06 З 4 н/о н/о +19.0 1018.1 1014.4
02 14.06 З 3 н/о н/о +19.3 1017.5 1013.8
03 14.06 З 4 н/о н/о +19.3 1017.0 1013.3
04 14.06 З 4 н/о н/о +19.1 1017.0 1013.3
05 14.06 З 3 н/о н/о +19.3 1017.3 1013.6
06 14.06 З 3 20 км [макс. диам. градин 0 мм] 8/8 600 м
[Cu Sc]
+19.0 1017.4 1013.7 +18.8
07 14.06 З 3 20 км 8/8 600 м
[Cu Sc]
+19.8 1018.0 1014.3
08 14.06 С 2 20 км 5/5 600 м
[Cu Sc]
+21.4 1018.5 1014.8
09 14.06 СВ 3 н/о н/о +21.3 1019.1 1015.4
10 14.06 С 3 н/о н/о +22.3 1019.5 1015.8
11 14.06 СВ 4 20 км 5/5 1000 м
[Cu Sc]
+22.3 1019.6 1015.9
12 14.06 СВ 3 20 км [макс. диам. градин 0 мм] 8/8 1000 м
[Cu Sc]
+21.9 1019.7 1016.0
13 14.06 СВ 2 н/о н/о +21.4 1019.6 1015.9
14 14.06 СВ 4 н/о осадки н/о +20.1 1019.3 1015.6
15 14.06 С 2 30 км в посл. час дождь [макс. диам. градин 0 мм] 8/8 600 м
[Cu Sc]
+20.9 1019.2 1015.5
16 14.06 З 4 н/о н/о +21.4 1019.1 1015.4
17 14.06 СВ 3 н/о н/о +21.5 1018.9 1015.2
18 14.06 СВ 3 25 км [макс. диам. градин 0 мм] 8/8 1000 м
[Cu Sc]
+21.1 1018.8 1015.1 +24.3 0.0
19 14.06 С 2 н/о н/о +20.8 1018.9 1015.2
20 14.06 С 2 н/о н/о +20.1 1019.1 1015.4
21 14.06 З 3 н/о н/о +18.9 1019.7 1016.0
22 14.06 З 4 н/о н/о +19.1 1020.1 1016.4
23 14.06 З 4 н/о н/о +19.2 1020.3 1016.6
00 15.06 З 3 н/о н/о +19.7 1020.1 1016.4
01 15.06 З 4 н/о н/о +19.5 1019.8 1016.1
02 15.06 З 3 н/о н/о +19.4 1019.3 1015.6
03 15.06 СЗ 3 н/о н/о +19.4 1018.9 1015.2
04 15.06 З 3 н/о н/о +18.3 1018.4 1014.7
05 15.06 З 3 н/о н/о +19.1 1018.4 1014.7
06 15.06 З 3 30 км [макс. диам. градин 0 мм] 8/8 1000 м
[Cu Sc]
+19.1 1018.6 1014.9 +18.3 0.0
07 15.06 С 1 н/о н/о +19.4 1019.1 1015.4
08 15.06 СЗ 2 н/о н/о +19.5 1019.4 1015.7
09 15.06 СЗ 1 30 км [макс. диам. градин 0 мм] 8/8 600 м
[Cu Sc]
+20.5 1019.5 1015.8
10 15.06 СВ 2 н/о н/о +21.0 1019.9 1016.2
11 15.06 В 3 н/о н/о +21.9 1020.3 1016.6
12 15.06 В 2 30 км [макс. диам. градин 0 мм] 8/8 1000 м
[Cu Sc]
+21.1 1020.2 1016.5
13 15.06 В 2 н/о н/о +20.4 1019.7 1016.0
14 15.06 ЮВ 2 н/о н/о +21.0 1019.7 1016.0
15 15.06 В 1 25 км [макс. диам. градин 0 мм] 8/8 600 м
[Cu Sc]
+20.3 1019.3 1015.6
16 15.06 штиль 0 н/о н/о +20.5 1018.9 1015.2
17 15.06 СЗ 1 н/о н/о +21.1 1018.7 1015.0
18 15.06 штиль 0 25 км [макс. диам. градин 0 мм] 9/8 600 м
[Cu Sc As trans]
+20.9 1018.4 1014.7 +22.4
19 15.06 С 1 н/о н/о +20.9 1018.7 1015.0
20 15.06 С 2 н/о н/о +20.3 1019.0 1015.3
21 15.06 СЗ 2 н/о н/о +20.0 1019.4 1015.7
22 15.06 З 2 н/о н/о +19.9 1020.0 1016.3
23 15.06 З 2 н/о н/о +19.4 1020.4 1016.7
00 16.06 З 2 н/о н/о +18.8 1020.4 1016.7
01 16.06 З 3 н/о н/о +18.2 1019.7 1016.0
02 16.06 З 3 н/о н/о +17.8 1018.9 1015.2
03 16.06 З 3 н/о н/о +17.4 1018.7 1015.0
04 16.06 З 3 н/о н/о +17.2 1018.5 1014.8
05 16.06 З 4 н/о н/о +17.3 1018.7 1015.0
06 16.06 З 3 30 км [макс. диам. градин 0 мм] 1/1 1000 м
[Cu Sc]
+17.0 1018.7 1015.0 +17.0
07 16.06 З 2 н/о н/о +18.2 1019.2 1015.5
08 16.06 В 1 н/о н/о +20.8 1019.5 1015.8
09 16.06 В 2 55 км [макс. диам. градин 0 мм] 1/1 1000 м
[Cu Sc]
+21.0 1019.7 1016.0
10 16.06 В 3 н/о н/о +22.1 1020.2 1016.5
11 16.06 В 3 н/о н/о +23.2 1020.3 1016.6
12 16.06 В 3 30 км [макс. диам. градин 0 мм] 1/1 1000 м
[Sc]
+23.0 1020.2 1016.5
13 16.06 ЮВ 4 н/о н/о +22.9 1020.0 1016.3
14 16.06 ЮВ 4 н/о н/о +23.0 1019.7 1016.0
15 16.06 ЮВ 4 30 км [макс. диам. градин 0 мм] 1/1 1000 м
[Sc]
+23.3 1019.4 1015.7
16 16.06 В 3 н/о н/о +22.9 1019.3 1015.6
17 16.06 ЮВ 3 н/о н/о +21.6 1019.3 1015.6
18 16.06 В 2 30 км [макс. диам. градин 0 мм] 3/3 600 м
[Sc]
+21.3 1018.8 1015.1 +23.7
19 16.06 В 2 н/о н/о +21.5 1018.9 1015.2
20 16.06 В 1 н/о н/о +21.0 1019.2 1015.5
21 16.06 штиль 0 60 км 1/1 1000 м
[Cu hum]
+20.5 1019.6 1015.9
22 16.06 ЮЗ 3 н/о н/о +19.6 1020.0 1016.3
23 16.06 ЮЗ 3 н/о н/о +19.5 1020.5 1016.8
00 17.06 ЮЗ 3 н/о н/о +19.2 1020.0 1016.3
01 17.06 ЮЗ 3 н/о н/о +18.9 1019.4 1015.7
02 17.06 ЮЗ 3 н/о н/о +18.5 1018.7 1015.0
03 17.06 ЮЗ 3 н/о н/о +18.4 1018.2 1014.5
04 17.06 З 3 н/о н/о +18.5 1017.7 1014.0
05 17.06 З 3 н/о н/о +18.2 1017.3 1013.6
06 17.06 СЗ 3 40 км [макс. диам. градин 0 мм] 1/1 600 м
[Cu Sc]
+18.8 1017.0 1013.3 +18.0
07 17.06 СЗ 4 н/о н/о +20.3 1017.2 1013.5
08 17.06 С 3 н/о н/о +21.4 1017.6 1013.9
09 17.06 С 3 40 км [макс. диам. градин 0 мм] 1/1 1000 м
[Cu Sc]
+23.0 1017.9 1014.2
10 17.06 С 3 н/о н/о +24.8 1017.8 1014.2
11 17.06 СВ 2 н/о н/о +23.4 1017.9 1014.2
12 17.06 В 2 40 км [макс. диам. градин 0 мм] 1/1 600 м
[Cu Sc]
+23.0 1017.9 1014.2
13 17.06 СВ 2 н/о н/о +24.6 1017.6 1014.0
14 17.06 СВ 2 н/о н/о +24.5 1017.3 1013.7
15 17.06 СВ 3 >70 км [макс. диам. градин 0 мм] 1/1 1500 м
[Cu Sc]
+24.3 1017.0 1013.4
16 17.06 СВ 3 н/о н/о +24.9 1016.9 1013.3
17 17.06 СВ 2 н/о н/о +24.1 1016.7 1013.1

 

Местоположение метеостанции Пальма (Канарские Острова): широта 28.62 долгота -17.75 высота над уровнем моря 31 м.

В архиве по умолчанию представлена погода на Пальме за последнюю неделю. Архивные данные за месяц целиком и за предыдущие месяцы, начиная с января 2011 года, Вы можете получить, выбрав интересующий диапазон дат из раскрывающегося списка и нажав кнопку "Ввод!".


*Определитесь, кто Вы:
робот инопланетянин человек

Внимание! Время в таблицах - всемирное. Для получения местного времени необходимо прибавить поправку, которая равна 0 ч.

Смотрите также архив погоды в соседних городах и на ближайших метеорологических станциях:

Погода в Тасакорте (Канарские Острова) (17 км)
Погода на Гомере (Канарские Острова) (84 км)
Погода в Джиждель порту (Алжир) (84 км)
Погода в Сан-Себастьян-де-ла-Гомера (Канарские Острова) (86 км)
Погода на Йерро (Канарские Острова) (90 км)
Погода в Пуэрто-де-ла-Крус (Канарские Острова) (119 км)
Погода в Обсерватории Izana (Канарские Острова) (127 км)
Погода в Аэропорту Рейна-София (Канарские Острова) (133 км)
Погода в Тенерифе-Гуимаре (Канарские Острова) (138 км)
Погода на Тенерифе (Канарские Острова) (142 км)

Пояснения к столбцам:

Ветер - указаны скорость ветра в м/с - средняя за 10 мин, порывы в срок и между сроками (в фигурных скобках) и направление, откуда дует ветер: С - северный, СВ - северо-восточный, В - восточный, ЮВ - юго-восточный, Ю - южный, ЮЗ - юго-западный, З - западный, СЗ - северо-западный.
Видимость - горизонтальная дальность видимости в метрах или километрах. При видимости от 1 до 10 км при отсутствии осадков обычно наблюдается дымка, при ухудшении видимости до 1 км и менее - туман. В сухую погоду видимость может ухудшаться дымом, пылью или мглою.
Явления - указаны атмосферные явления, наблюдавшиеся в срок или в последний час перед сроком; фигурными скобками обозначены явления, наблюдавшиеся между сроками (за 1-3 часа до срока); квадратными скобками обозначены град или гололедные отложения с указанием их диаметра в мм.
Облачность - указаны через наклонную черту общая и нижняя облачность в баллах и высота нижней границы облаков в метрах; квадратными скобками обозначены формы облаков: Ci - перистые, Cs - перисто-слоистые, Cc - перисто-кучевые, Ac - высококучевые, As - высокослоистые, Sc - слоисто-кучевые, Ns - слоисто-дождевые, Cu - кучевые, Cb - кучево-дождевые. Подробнее классификацию облаков см. в Атласе облаков (PDF).
T - Температура воздуха - температура, измеренная на высоте 2 м над землей.
Td - Температура точки росы - температура, при понижении до которой содержащийся в воздухе водяной пар достигнет насыщения.
f - Относительная влажность воздуха - влажноcть воздуха, измеренная на высоте 2 м над землей.
Te - Эффективная температура - температура, которую ощущает одетый по сезону человек в тени. Характеристика душности погоды. При расчете учитывается влияние влажности воздуха и скорости ветра на теплоощущения человека.
Tes - Эффективная температура на солнце - температура, которую ощущает человек, с поправкой на солнечный нагрев. Характеристика знойности погоды. Зависит от высоты солнца над горизонтом, облачности и скорости ветра. Ночью, в пасмурную погоду, а также при ветре 12 м/с и более поправка равна нулю.
P - Атмосферное давление - приведенное к уровню моря атмосферное давление.
Po - Атмосферное давление - измеренное на уровне метеостанции атмосферное давление.
Tmin - Минимальная температура - минимум температуры воздуха на высоте 2 м над землей.
Tmax - Максимальная температура - максимум температуры воздуха на высоте 2 м над землей.
R - Количество осадков - Количество выпавших осадков за период времени, мм. При наведении курсора мыши на число - период времени, за который выпало указанное количество осадков.
R24 - Количество осадков - Количество выпавших осадков за 24 часа, мм.
S - Снежный покров - Высота снежного покрова, см. При наведении курсора мыши на число - состояние снежного покрова и степень покрытия местности в баллах.